Tracking 35274 objects as of 11-Sep-2026
HD Live streaming from Space Station
objects crossing your sky now

DISCOVERER 14


DISCOVERER 14 is no longer on orbit


NORAD ID: 54
Int'l Code: 1960-010A
Launch date: August 18, 1960
Source: United States (US)
Launch site: AIR FORCE WESTERN TEST RANGE (AFWTR)
Decay date: 1960-09-16
Your satellite tracking list
Your tracking list is empty




NASA's NSSDC Master Catalog

Two Line Element Set (TLE):
1 00054U 60010  A 60260.63050842  .09000678 +00000-0 +00000-0 0  9998
2 00054 079.6499 291.9186 0000000 070.2736 289.7263 16.45439868004506
Source of the keplerian elements: AFSPC